Weather History for Asheville, NC

Change the Weather History Date:

Sunday, February 10, 2013

  Actual Average Record
Temperature  
Mean Temperature 41 °F 39 °F  
Max Temperature 50 °F 50 °F 80 °F (1932)
Min Temperature 32 °F 29 °F 6 °F (1895)
Degree Days  
Heating Degree Days 24 26  
Month to date heating degree days 253 264  
Since 1 July heating degree days 2500 2791  
Cooling Degree Days 0 0  
Month to date cooling degree days 0 0  
Year to date cooling degree days 0 0  
Moisture  
Dew Point 30 °F    
Average Humidity 67    
Maximum Humidity 100    
Minimum Humidity 34    
Precipitation  
Precipitation 0.43 in 0.13 in 2.07 in (1981)
Month to date precipitation 0.85 1.32  
Year to date precipitation 9.43 4.99  
Snow  
Snow 0.00 in 0.10 in 6.80 in (1908)
Month to date snowfall T 0.9  
Since 1 July snowfall T 6.0  
Snow Depth 0.00 in    
Sea Level Pressure  
Sea Level Pressure 30.28 in    
Wind  
Wind Speed 6 mph (SSE)    
Max Wind Speed 17 mph    
Max Gust Speed 25 mph    
Visibility 9 miles    
Events Rain    
T = Trace of Precipitation, MM = Missing Value Source: NWS Daily Summary

Daily Weather History Graph

Daily Weather History Graph

Search for Another Location

Airport:

Trip Planner

Search our weather history database for the weather conditions in past years. The results will help you decide how hot, cold, wet, or windy it might be!

Date:

Astronomy

Feb. 10, 2013 Rise Set
Actual Time 7:21 AM EST 6:07 PM EST
Civil Twilight 6:55 AM EST 6:33 PM EST
Nautical Twilight 6:25 AM EST 7:03 PM EST
Astronomical Twilight 5:55 AM EST 7:33 PM EST
Moon 7:13 AM EST (2/10) 6:53 PM EST (2/10)
Length of Visible Light 11h 38m
Length of Day
10h 46m
New Moon, 0% of the Moon is Illuminated
Feb 10
New Moon
Feb 17
First Quarter
Feb 25
Full
Mar 4
Last Quarter
Mar 11
New

Hourly Weather History & Observations

Time (EST) Temp. Windchill Dew Point Humidity Pressure Visibility Wind Dir Wind Speed Gust Speed Precip Events Conditions
12:54 AM 33.1 °F 30.0 °F 26.1 °F 75% 30.32 in 10.0 mi SSE 3.5 mph - N/A   Clear
1:54 AM 33.1 °F 30.0 °F 26.1 °F 75% 30.32 in 10.0 mi SSE 3.5 mph - N/A   Clear
2:54 AM 34.0 °F - 26.1 °F 73% 30.32 in 10.0 mi Calm Calm - N/A   Clear
3:54 AM 34.0 °F 31.0 °F 27.0 °F 75% 30.31 in 10.0 mi SSE 3.5 mph - N/A   Clear
4:54 AM 36.0 °F - 27.0 °F 70% 30.31 in 10.0 mi Calm Calm - N/A   Clear
5:54 AM 37.9 °F 34.4 °F 25.0 °F 60% 30.33 in 10.0 mi SE 4.6 mph - N/A   Mostly Cloudy
6:54 AM 36.0 °F 33.3 °F 25.0 °F 64% 30.36 in 10.0 mi South 3.5 mph - N/A   Partly Cloudy
7:54 AM 37.0 °F 34.5 °F 24.1 °F 59% 30.37 in 10.0 mi SSE 3.5 mph - N/A   Clear
8:54 AM 39.9 °F 35.1 °F 23.0 °F 51% 30.37 in 10.0 mi South 6.9 mph - N/A   Clear
9:54 AM 42.1 °F 37.1 °F 21.0 °F 43% 30.38 in 10.0 mi SSE 8.1 mph - N/A   Clear
10:54 AM 43.0 °F 37.7 °F 19.9 °F 40% 30.38 in 10.0 mi SSE 9.2 mph - N/A   Mostly Cloudy
11:54 AM 46.0 °F 40.2 °F 23.0 °F 40% 30.35 in 10.0 mi SSE 12.7 mph - N/A   Mostly Cloudy
12:54 PM 46.9 °F - 23.0 °F 39% 30.31 in 10.0 mi SSE 12.7 mph 17.3 mph N/A   Clear
1:54 PM 48.0 °F - 21.0 °F 34% 30.24 in 10.0 mi SSE 13.8 mph 21.9 mph N/A   Clear
2:54 PM 50.0 °F - 25.0 °F 38% 30.25 in 10.0 mi SSE 9.2 mph 17.3 mph N/A   Clear
3:54 PM 48.9 °F - 26.1 °F 41% 30.22 in 10.0 mi SSE 10.4 mph 16.1 mph N/A   Scattered Clouds
4:54 PM 48.0 °F - 26.1 °F 42% 30.22 in 10.0 mi SE 4.6 mph - N/A   Overcast
5:54 PM 44.1 °F 41.5 °F 32.0 °F 63% 30.23 in 7.0 mi SE 4.6 mph - 0.01 in Rain Light Rain
6:32 PM 42.8 °F - 37.4 °F 81% 30.22 in 6.0 mi Calm Calm - 0.06 in Rain Rain
6:54 PM 39.9 °F - 39.0 °F 97% 30.24 in 5.0 mi Calm Calm - 0.12 in Rain Rain
7:54 PM 39.9 °F 36.7 °F 37.9 °F 93% 30.25 in 5.0 mi SSE 4.6 mph - 0.12 in Rain Rain
8:36 PM 41.0 °F 39.0 °F 39.2 °F 93% 30.26 in 6.0 mi SE 3.5 mph - 0.05 in Rain Light Rain
8:54 PM 41.0 °F 38.0 °F 39.0 °F 93% 30.28 in 6.0 mi ESE 4.6 mph - 0.07 in Rain Rain
9:54 PM 41.0 °F 36.4 °F 39.9 °F 96% 30.22 in 7.0 mi SE 6.9 mph - 0.03 in Rain Light Rain
10:41 PM 42.8 °F 37.0 °F 41.0 °F 93% 30.18 in 6.0 mi SSE 10.4 mph - 0.07 in Rain Light Rain
10:54 PM 42.1 °F 36.6 °F 41.0 °F 96% 30.17 in 9.0 mi SSE 9.2 mph - 0.07 in Rain Light Rain
11:54 PM 43.0 °F 37.7 °F 43.0 °F 100% 30.13 in 9.0 mi South 9.2 mph - 0.01 in   Overcast